Tracking 21082 objects as of 5-Aug-2020
HD Live streaming from Space Station
objects crossing your sky now

METEOR 2-5 DEB

Track METEOR 2-5 DEB now!
10-day predictions


NORAD ID: 35254
Int'l Code: 1979-095V
Perigee: 748.6 km
Apogee: 767.6 km
Inclination: 81.2 °
Period: 99.8 minutes
Semi major axis: 7129 km
RCS: 0.0087 m2 (small)
Launch date: October 31, 1979
Source: Commonwealth of Independent States (former USSR) (CIS)
Launch site: PLESETSK MISSILE AND SPACE COMPLEX (PKMTR)

Note: This is SATELLITE DEBRIS
aabbcc
Your satellite tracking list
Your tracking list is empty




NASA's NSSDC Master Catalog

Two Line Element Set (TLE):
1 35254U 79095V   20214.57203517  .00002103  00000-0  63277-3 0  9992
2 35254  81.2020 269.8333 0013324 124.3696 235.8754 14.42295483875110
Source of the keplerian elements: AFSPC